EW2804 Weather Reports


time (UTC)temp
C
wind
direction
speed
KPH
gust
KPH
rain 1hr
cm
rain 24hr
cm
rain mn
cm
humidity
%
barometer
mb
20260505100528 21 218 3.2 19.3 0.00 0.00 0.00 79 1001.3
20260505095507 22 173 4.8 19.3 0.00 0.00 0.00 78 1001.4
20260505094459 22 248 4.8 16.1 0.00 0.00 0.00 78 1001.4
20260505093509 22 220 3.2 16.1 0.00 0.00 0.00 78 1001.4
20260505092531 22 150 4.8 16.1 0.00 0.00 0.00 78 1001.6
20260505091456 22 240 4.8 14.5 0.00 0.00 0.00 77 1001.6
20260505090419 22 217 4.8 12.9 0.00 0.00 0.00 77 1001.8
20260505085412 22 188 3.2 14.5 0.00 0.00 0.00 76 1001.9
20260505083259 22 191 4.8 16.1 0.00 0.00 0.00 75 1001.9
20260505082304 22 163 3.2 16.1 0.00 0.00 0.00 75 1001.8
20260505081316 22 198 3.2 16.1 0.00 0.00 0.00 74 1001.9
20260505075137 23 140 3.2 19.3 0.00 0.00 0.00 72 1002.0
20260505074114 23 207 3.2 14.5 0.00 0.00 0.00 72 1002.2
20260505073122 23 111 3.2 20.9 0.00 0.00 0.00 71 1002.5
20260505072125 23 238 3.2 20.9 0.00 0.00 0.00 71 1002.7
20260505071136 23 144 3.2 12.9 0.00 0.00 0.00 71 1002.9
20260505070112 23 67 3.2 20.9 0.00 0.00 0.00 70 1002.9
20260505065114 23 248 3.2 20.9 0.00 0.00 0.00 69 1003.1
20260505064048 23 239 3.2 12.9 0.00 0.00 0.00 69 1003.2
20260505063105 23 188 3.2 12.9 0.00 0.00 0.00 69 1003.3
20260505062038 23 214 1.6 11.3 0.00 0.00 0.00 68 1003.3
20260505061045 23 181 3.2 12.9 0.00 0.00 0.00 68 1003.4
20260505055044 23 161 1.6 8.0 0.00 0.00 0.00 69 1003.4
20260505054013 23 167 1.6 11.3 0.00 0.00 0.00 69 1003.4
20260505051905 23 148 3.2 14.5 0.00 0.00 0.00 68 1003.4
20260505050850 23 96 4.8 12.9 0.00 0.00 0.00 68 1003.5
20260505041503 23 145 3.2 12.9 0.00 0.00 0.00 67 1003.6
20260505040500 23 196 3.2 14.5 0.00 0.00 0.00 67 1003.8
20260505035502 23 139 4.8 14.5 0.00 0.00 0.00 67 1003.7
20260505034522 23 178 3.2 25.7 0.00 0.00 0.00 67 1003.7
20260505033526 23 230 3.2 25.7 0.00 0.00 0.00 67 1003.7
20260505032454 23 127 3.2 17.7 0.00 0.00 0.00 66 1003.6
20260505031514 23 157 4.8 17.7 0.00 0.00 0.00 66 1003.7
20260505030526 23 188 4.8 17.7 0.00 0.00 0.00 66 1003.8
20260505025500 24 141 4.8 16.1 0.00 0.00 0.00 66 1003.8
20260505015937 24 132 1.6 11.3 0.00 0.00 0.00 65 1003.7
20260505014915 24 159 3.2 11.3 0.00 0.00 0.00 64 1003.7
20260505013923 24 229 3.2 14.5 0.00 0.00 0.00 64 1003.6
20260505012858 25 171 4.8 17.7 0.00 0.00 0.00 64 1003.7
20260505011845 25 194 4.8 17.7 0.00 0.00 0.00 63 1003.7
20260505010903 25 198 4.8 19.3 0.00 0.00 0.00 63 1003.7
20260505005845 25 128 6.4 19.3 0.00 0.00 0.00 62 1003.7
20260505004847 25 167 3.2 14.5 0.00 0.00 0.00 63 1003.7
20260505001508 25 226 4.8 20.9 0.00 0.00 0.00 60 1003.7
20260505000442 26 87 4.8 25.7 0.00 0.00 0.00 60 1004.0
20260504235408 26 129 4.8 25.7 0.00 0.00 0.00 60 1003.8
20260504234359 26 155 4.8 19.3 0.00 0.00 0.00 59 1003.8
20260504232244 26 205 4.8 17.7 0.00 0.00 0.00 59 1004.1
20260504231230 26 150 6.4 24.1 0.00 0.00 0.00 58 1004.0
20260504230233 27 192 4.8 24.1 0.00 0.00 0.00 57 1004.1
20260504222942 27 153 6.4 24.1 0.00 0.00 0.00 56 1004.3
20260504221920 27 240 6.4 24.1 0.00 0.00 0.00 57 1004.5
20260504220941 27 153 4.8 24.1 0.00 0.00 0.00 58 1004.5
20260504215913 27 155 4.8 24.1 0.00 0.00 0.00 59 1004.5
20260504214913 27 61 6.4 19.3 0.00 0.00 0.00 56 1004.7
20260504213839 27 198 6.4 19.3 0.00 0.00 0.00 56 1004.9
20260504212901 27 121 4.8 14.5 0.00 0.00 0.00 58 1005.2
20260504211826 27 232 4.8 17.7 0.00 0.00 0.00 55 1005.3
20260504210827 27 294 6.4 17.7 0.00 0.00 0.00 56 1005.5
20260504204701 27 122 4.8 19.3 0.00 0.00 0.00 54 1006.1
20260504203628 27 184 4.8 16.1 0.00 0.00 0.00 56 1006.2
20260504202601 27 244 6.4 19.3 0.00 0.00 0.00 58 1006.3
20260504201543 26 142 6.4 22.5 0.00 0.00 0.00 56 1006.5
20260504200526 26 169 6.4 25.7 0.00 0.00 0.00 56 1006.8
20260504195506 26 234 6.4 25.7 0.00 0.00 0.00 55 1007.1
20260504193340 26 119 4.8 32.2 0.00 0.00 0.00 59 1007.2
20260504192325 26 130 6.4 32.2 0.00 0.00 0.00 55 1007.5
20260504191300 26 247 6.4 17.7 0.00 0.00 0.00 57 1007.6
20260504185030 25 188 4.8 24.1 0.00 0.00 0.00 59 1008.1
20260504183956 25 142 6.4 16.1 0.00 0.00 0.00 57 1008.2
20260504182950 25 143 6.4 17.7 0.00 0.00 0.00 59 1008.4
20260504182006 25 180 6.4 22.5 0.00 0.00 0.00 57 1008.5
20260504181026 25 169 4.8 22.5 0.00 0.00 0.00 58 1008.7
20260504180035 25 94 6.4 19.3 0.00 0.00 0.00 56 1008.9
20260504175021 25 163 6.4 19.3 0.00 0.00 0.00 56 1008.8
20260504173949 25 189 6.4 19.3 0.00 0.00 0.00 57 1009.1
20260504171907 24 208 6.4 22.5 0.00 0.00 0.00 59 1009.4
20260504170840 24 181 4.8 22.5 0.00 0.00 0.00 57 1009.6
20260504141333 20 194 6.4 24.1 0.00 0.00 0.00 67 1011.0
20260504140310 20 255 6.4 22.5 0.00 0.00 0.00 68 1011.2
20260504130324 17 0 1.6 11.3 0.00 0.00 0.00 71 1011.5